Location: Aalen
(48.8330°N, 10.1000°E)
Time: 04:28:12
(UTC+02:00)

Transit 2A - Pass Details

Date: 04 August 2021
Orbit: 594 x 964 km, 66.7° (Epoch: 21 September)

Event Time Altitude Azimuth Distance (km) Brightness Sun altitude
Rises 15:55:11 0° 320° (NW) 3,252 9.3 46.1°
Reaches altitude 10° 15:57:34 10° 314° (NW) 2,378 8.8 45.8°
Maximum altitude 16:02:48 46° 243° (WSW) 1,141 10.7 45.1°
Drops below altitude 10° 16:08:29 10° 172° (S) 2,585 9.1 44.3°
Sets 16:11:11 0° 167° (SSE) 3,564 9.6 43.9°
